time,it,sc,msc,dt,rho,mx,my,mz,p,bx,by,bz,pmin,pmax,dst_sm,dstflx_R=3.0
2011-08-05 15:00:00,50001,0,9,0.00996762,4.31046,-3.02768e-15,4.63042e-17,-6.24043e-17,0.00843155,0.134264,0.313643,2.16718,2.48343e-05,1.00551,4.62544,0.0882412
2011-08-05 15:01:00,52113,0,0,0.0252357,4.31185,-3.02885e-15,4.62047e-17,-6.23606e-17,0.00843258,0.13417,0.30921,2.16991,2.43803e-05,1.00581,4.61678,0.184608
2011-08-05 15:02:00,54226,0,0,0.00189589,4.31561,-3.03152e-15,4.58996e-17,-6.22573e-17,0.00843872,0.134094,0.300878,2.17382,2.38249e-05,1.00389,4.60656,0.246058
2011-08-05 15:03:00,56339,0,0,0.00656286,4.31959,-3.03426e-15,4.54234e-17,-6.22076e-17,0.0084461,0.134026,0.301023,2.17357,2.3194e-05,1.00257,4.68276,0.294182
2011-08-05 15:04:00,58452,0,0,0.00980483,4.32278,-3.03637e-15,4.47973e-17,-6.2382e-17,0.00845182,0.133967,0.303055,2.17202,2.27668e-05,1.00931,4.69389,0.339696
2011-08-05 15:05:00,60565,0,0,0.00705501,4.32582,-3.03826e-15,4.40122e-17,-6.29017e-17,0.00845814,0.133917,0.299725,2.1714,2.21925e-05,1.01992,4.68962,0.388722
2011-08-05 15:06:00,62678,0,0,0.00767177,4.3287,-3.04e-15,4.31838e-17,-6.36401e-17,0.00846488,0.133872,0.294545,2.17229,2.18005e-05,0.984207,4.72404,0.494388
2011-08-05 15:07:00,64791,0,0,0.0126876,4.33096,-3.04129e-15,4.23764e-17,-6.44374e-17,0.00846932,0.133832,0.29159,2.17565,2.15773e-05,0.994684,4.80141,0.608323
2011-08-05 15:08:00,66904,0,0,0.0109104,4.33147,-3.04126e-15,4.14726e-17,-6.52892e-17,0.00846602,0.133794,0.297361,2.17766,2.12165e-05,0.977014,4.8173,0.620262
2011-08-05 15:09:00,69017,0,0,0.00598499,4.32968,-3.03957e-15,4.06437e-17,-6.6092e-17,0.00845659,0.133757,0.312471,2.17625,1e-05,0.944935,4.97433,0.739419
2011-08-05 15:10:00,71130,0,0,0.00412869,4.32594,-3.03663e-15,4.02249e-17,-6.67117e-17,0.00845063,0.13372,0.318503,2.1783,1e-05,0.96527,4.9527,0.823674
2011-08-05 15:11:00,73243,0,0,0.00389917,4.3194,-3.03181e-15,3.99237e-17,-6.71506e-17,0.00843895,0.133681,0.3106,2.18407,1e-05,0.906872,4.92457,0.85185
2011-08-05 15:12:00,75355,0,0,0.0276391,4.31027,-3.0251e-15,3.93859e-17,-6.75193e-17,0.00841575,0.133638,0.305707,2.1873,1e-05,0.893231,4.95167,0.871889
2011-08-05 15:13:00,77467,0,0,0.0241063,4.30151,-3.01847e-15,3.86562e-17,-6.79761e-17,0.00839435,0.133595,0.306598,2.18859,1e-05,0.873722,4.98363,0.889354
2011-08-05 15:14:00,79579,0,0,0.0222258,4.29353,-3.01231e-15,3.78359e-17,-6.85164e-17,0.00837669,0.133552,0.31133,2.19023,1e-05,0.855042,4.80968,0.777581
2011-08-05 15:15:00,81691,0,0,0.0183055,4.28454,-3.00555e-15,3.70467e-17,-6.90026e-17,0.00835593,0.133507,0.3174,2.19329,1e-05,0.826187,4.66242,0.713167
2011-08-05 15:16:00,83803,0,0,0.019599,4.2757,-2.99907e-15,3.6478e-17,-6.94319e-17,0.00833046,0.133461,0.325772,2.19623,1e-05,0.80483,4.55286,0.645019
2011-08-05 15:17:00,85915,0,0,0.0253421,4.26864,-2.99406e-15,3.6297e-17,-6.9841e-17,0.00829997,0.133413,0.336553,2.19665,1e-05,0.771583,4.37889,0.471371
2011-08-05 15:18:00,88028,0,0,0.00253704,4.26187,-2.98913e-15,3.59783e-17,-7.02648e-17,0.00827064,0.133366,0.34614,2.19578,1e-05,0.711433,4.07887,0.266181
2011-08-05 15:19:00,90141,0,0,0.0015845,4.2538,-2.98286e-15,3.50079e-17,-7.0736e-17,0.00824871,0.133318,0.358145,2.19417,1e-05,0.667862,3.86463,0.139284
2011-08-05 15:20:00,92254,0,0,0.0102848,4.24662,-2.97681e-15,3.3776e-17,-7.14104e-17,0.00822911,0.133272,0.366675,2.19074,1e-05,0.663507,3.78723,0.0987284
2011-08-05 15:21:00,94367,0,0,0.0142626,4.24182,-2.97211e-15,3.26318e-17,-7.23662e-17,0.00820608,0.133224,0.364066,2.188,1e-05,0.680316,3.77447,0.126903
2011-08-05 15:22:00,96480,0,0,0.0146488,4.23679,-2.96701e-15,3.14775e-17,-7.32679e-17,0.00817802,0.133175,0.354674,2.18496,1e-05,0.685765,3.81325,0.161256
2011-08-05 15:23:00,98593,0,0,0.0143777,4.22982,-2.9604e-15,3.03006e-17,-7.39171e-17,0.00814607,0.133123,0.340497,2.1795,1e-05,0.699571,4.01541,0.295755
2011-08-05 15:24:00,100706,0,0,0.0155586,4.22272,-2.9537e-15,2.94656e-17,-7.45754e-17,0.00811821,0.133065,0.319134,2.1749,1e-05,0.724608,4.22209,0.490915
2011-08-05 15:25:00,102819,0,0,0.0167462,4.21697,-2.94807e-15,2.92852e-17,-7.54563e-17,0.00810108,0.133,0.282072,2.17102,1e-05,0.714498,4.11058,0.397776
2011-08-05 15:26:00,104932,0,0,0.0100903,4.21204,-2.94303e-15,2.9308e-17,-7.64732e-17,0.00808864,0.132931,0.233886,2.16517,1e-05,0.644559,3.90253,0.250122
2011-08-05 15:27:00,107044,0,0,0.0245867,4.20748,-2.93809e-15,2.90704e-17,-7.75367e-17,0.00807706,0.132862,0.186288,2.15884,1e-05,0.572817,3.93646,0.342662
2011-08-05 15:28:00,109156,0,0,0.0280304,4.20221,-2.9324e-15,2.86929e-17,-7.85967e-17,0.00806374,0.132788,0.138393,2.15226,1e-05,0.602345,4.09768,0.457691
2011-08-05 15:29:00,111268,0,0,0.0262726,4.1952,-2.92516e-15,2.82945e-17,-7.96146e-17,0.00804543,0.13271,0.088168,2.14499,1e-05,0.627084,4.15086,0.46348
2011-08-05 15:30:00,113381,0,0,0.0015948,4.18752,-2.91726e-15,2.77741e-17,-8.07514e-17,0.00802655,0.132627,0.0378024,2.1357,1e-05,0.611151,4.30909,0.563951
2011-08-05 15:31:00,115493,0,0,0.0282482,4.17999,-2.90941e-15,2.70547e-17,-8.20969e-17,0.00801118,0.132537,-0.0133857,2.12214,1e-05,0.589796,4.638,0.770662
2011-08-05 15:32:00,117605,0,0,0.0266585,4.17152,-2.90087e-15,2.6225e-17,-8.3374e-17,0.00799776,0.132442,-0.066299,2.10511,1e-05,0.600981,4.82922,0.841591
2011-08-05 15:33:00,119717,0,0,0.0200581,4.1617,-2.89138e-15,2.53659e-17,-8.44662e-17,0.00798538,0.132338,-0.120726,2.08658,1e-05,0.576846,4.92297,0.879464
2011-08-05 15:34:00,121829,0,0,0.0169811,4.15162,-2.88175e-15,2.45048e-17,-8.56125e-17,0.00797635,0.13223,-0.175831,2.06442,1e-05,0.562308,5.06504,0.906759
2011-08-05 15:35:00,123941,0,0,0.00510662,4.14081,-2.8717e-15,2.35929e-17,-8.68574e-17,0.00796804,0.132119,-0.231303,2.03922,1e-05,0.551135,5.08138,0.852229
2011-08-05 15:36:00,126052,0,0,0.0244424,4.12734,-2.85989e-15,2.25234e-17,-8.80204e-17,0.00795317,0.132013,-0.2879,2.01082,1e-05,0.558877,5.0928,0.766601
2011-08-05 15:37:00,128163,0,0,0.0220984,4.11188,-2.84673e-15,2.14463e-17,-8.91497e-17,0.00793406,0.131913,-0.344201,1.97654,1e-05,0.558595,5.23083,0.755894
2011-08-05 15:38:00,130274,0,0,0.0278293,4.09657,-2.83361e-15,2.0621e-17,-9.04248e-17,0.00791828,0.131821,-0.3981,1.93804,1e-05,0.543096,5.42342,0.795677
2011-08-05 15:39:00,132386,0,0,0.00746609,4.08094,-2.82019e-15,1.98626e-17,-9.16828e-17,0.00789781,0.131739,-0.448058,1.89955,1e-05,0.539937,5.42195,0.761922
2011-08-05 15:40:00,134498,0,0,0.00978927,4.06396,-2.80571e-15,1.88996e-17,-9.27498e-17,0.00786475,0.131671,-0.497515,1.86666,1e-05,0.592036,5.29285,0.747073
2011-08-05 15:41:00,136610,0,0,0.00746005,4.04614,-2.79053e-15,1.77643e-17,-9.3844e-17,0.00782862,0.131613,-0.54833,1.83846,1e-05,0.592173,5.20496,0.749285
2011-08-05 15:42:00,138722,0,0,0.00303363,4.02948,-2.77598e-15,1.66369e-17,-9.52091e-17,0.00779642,0.131567,-0.597656,1.81056,1e-05,0.58037,5.17595,0.725566
2011-08-05 15:43:00,140833,0,0,0.0234067,4.01657,-2.76384e-15,1.57867e-17,-9.69907e-17,0.00776824,0.131527,-0.636294,1.7765,1e-05,0.547925,5.18124,0.592669
2011-08-05 15:44:00,142944,0,0,0.0169834,4.00554,-2.75301e-15,1.51631e-17,-9.88577e-17,0.00773632,0.131493,-0.666755,1.73727,1e-05,0.51976,5.09636,0.458685
2011-08-05 15:45:00,145055,0,0,0.0112711,3.99335,-2.74151e-15,1.45552e-17,-1.00398e-16,0.0076953,0.131462,-0.701197,1.7032,1e-05,0.511683,4.84374,0.355111
2011-08-05 15:46:00,147166,0,0,0.00574262,3.98197,-2.73058e-15,1.40217e-17,-1.01846e-16,0.0076533,0.131434,-0.737173,1.67196,1e-05,0.504129,4.67509,0.246703
2011-08-05 15:47:00,149277,0,0,0.00659994,3.97264,-2.72096e-15,1.35954e-17,-1.03342e-16,0.00761591,0.131409,-0.773517,1.64048,1e-05,0.511562,4.55618,0.156897
2011-08-05 15:48:00,151388,0,0,0.00551968,3.96349,-2.71145e-15,1.31809e-17,-1.04672e-16,0.00757868,0.131385,-0.810357,1.61101,1e-05,0.47997,4.42754,0.0471657
2011-08-05 15:49:00,153499,0,0,0.00244765,3.95502,-2.70235e-15,1.26727e-17,-1.05767e-16,0.0075399,0.131361,-0.847094,1.58326,1e-05,0.500509,4.28894,-0.0294879
2011-08-05 15:50:00,155610,0,0,0.000813793,3.94902,-2.69477e-15,1.20135e-17,-1.06659e-16,0.00750172,0.131338,-0.881266,1.55735,1e-05,0.445768,4.41241,0.097294
2011-08-05 15:51:00,157720,0,0,0.0179853,3.94358,-2.68748e-15,1.13989e-17,-1.07179e-16,0.00746578,0.131317,-0.909806,1.52952,1e-05,0.494213,4.73749,0.255946
2011-08-05 15:52:00,159829,0,0,0.028082,3.93611,-2.67881e-15,1.09565e-17,-1.07271e-16,0.00743231,0.131292,-0.936884,1.5065,1e-05,0.520727,4.6934,0.265261
2011-08-05 15:53:00,161938,0,0,0.0103778,3.92471,-2.66745e-15,1.03597e-17,-1.0731e-16,0.00739729,0.131264,-0.969439,1.49142,1e-05,0.519555,4.64821,0.309388
2011-08-05 15:54:00,164046,0,0,0.0241336,3.90892,-2.65302e-15,9.493900000000002e-18,-1.07534e-16,0.00735803,0.131233,-1.00673,1.47352,1e-05,0.533841,4.8181,0.390224
2011-08-05 15:55:00,166154,0,0,0.00112498,3.89087,-2.63699e-15,8.58213e-18,-1.07893e-16,0.00731567,0.131196,-1.04385,1.45178,1e-05,0.532669,4.87663,0.355248
2011-08-05 15:56:00,168261,0,0,0.00953931,3.87199,-2.62023e-15,7.71645e-18,-1.08283e-16,0.00726989,0.131163,-1.08031,1.42959,1e-05,0.532693,4.93732,0.38015
2011-08-05 15:57:00,170367,0,0,0.0266373,3.85307,-2.60314e-15,6.87407e-18,-1.08571e-16,0.0072205,0.131132,-1.1144,1.40705,1e-05,0.54413,5.00219,0.395973
2011-08-05 15:58:00,172473,0,0,0.0196133,3.83359,-2.58548e-15,5.94183e-18,-1.09029e-16,0.00716893,0.131106,-1.14559,1.38206,1e-05,0.565295,5.16865,0.446611
2011-08-05 15:59:00,174579,0,0,0.0104944,3.81291,-2.56699e-15,4.811450000000001e-18,-1.09791e-16,0.00711627,0.131083,-1.17718,1.35548,1e-05,0.57063,5.13858,0.361764
2011-08-05 16:00:00,176684,0,0,0.0218794,3.79175,-2.54813e-15,3.4652600000000002e-18,-1.10389e-16,0.00706235,0.131061,-1.20836,1.33012,1e-05,0.522588,4.81131,0.103283
2011-08-05 16:01:00,178789,0,0,0.00442214,3.76967,-2.52879e-15,2.0989200000000003e-18,-1.10589e-16,0.00700735,0.131034,-1.24087,1.30662,1e-05,0.49027,4.3865,-0.151653
2011-08-05 16:02:00,180893,0,0,0.0277017,3.74819,-2.51006e-15,8.8397e-19,-1.10605e-16,0.00695456,0.131006,-1.27122,1.28189,1e-05,0.494911,4.20003,-0.291893
2011-08-05 16:03:00,182998,0,0,0.00606193,3.73244,-2.49517e-15,-2.58105e-19,-1.10769e-16,0.00690921,0.130978,-1.29717,1.25356,1e-05,0.496247,4.12346,-0.407311
2011-08-05 16:04:00,185103,0,0,0.0206252,3.72221,-2.4841e-15,-1.2747200000000001e-18,-1.11191e-16,0.00687033,0.130953,-1.32264,1.22604,1e-05,0.492493,4.07887,-0.450661
2011-08-05 16:05:00,187209,0,0,0.00819946,3.71404,-2.47471e-15,-2.07371e-18,-1.11769e-16,0.00683493,0.130931,-1.34543,1.20169,1e-05,0.503293,4.10404,-0.433615
2011-08-05 16:06:00,189315,0,0,0.0220096,3.70671,-2.46607e-15,-2.6919600000000003e-18,-1.12456e-16,0.00680322,0.130909,-1.36795,1.1783,1e-05,0.539323,4.18121,-0.417856
2011-08-05 16:07:00,191421,0,0,0.0272512,3.70034,-2.45817e-15,-3.17863e-18,-1.13158e-16,0.00677607,0.130884,-1.3919,1.15467,1e-05,0.602987,4.22339,-0.413494
2011-08-05 16:08:00,193527,0,0,0.0264848,3.69605,-2.45175e-15,-3.5586000000000005e-18,-1.13857e-16,0.00675367,0.13086,-1.41664,1.13062,1e-05,0.641666,4.23626,-0.430011
2011-08-05 16:09:00,195633,0,0,0.0235081,3.69517,-2.44771e-15,-3.8224600000000005e-18,-1.14724e-16,0.00673524,0.130833,-1.44168,1.10709,1e-05,0.680197,4.1887,-0.455565
2011-08-05 16:10:00,197739,0,0,0.0250677,3.69717,-2.44574e-15,-4.0574000000000005e-18,-1.15647e-16,0.00672258,0.130806,-1.46827,1.08403,1e-05,0.674658,4.30172,-0.366528
2011-08-05 16:11:00,199846,0,0,0.0050644,3.70034,-2.44466e-15,-4.36026e-18,-1.16359e-16,0.00671771,0.130774,-1.49773,1.05982,1e-05,0.633091,4.57775,-0.19671
2011-08-05 16:12:00,201953,0,0,0.00857658,3.70478,-2.4445e-15,-4.54945e-18,-1.1697e-16,0.00671638,0.130749,-1.526,1.03706,1e-05,0.598453,4.7098,-0.130361
2011-08-05 16:13:00,204060,0,0,0.00554506,3.71184,-2.44612e-15,-4.64266e-18,-1.1752e-16,0.00671496,0.130734,-1.55269,1.0145,1e-05,0.523614,4.73294,-0.174969
2011-08-05 16:14:00,206166,0,0,0.024888,3.7232,-2.45064e-15,-5.0018000000000006e-18,-1.17843e-16,0.00671541,0.130724,-1.57818,0.993449,1e-05,0.517941,4.66456,-0.194884
2011-08-05 16:15:00,208272,0,0,0.0202779,3.73481,-2.45554e-15,-5.4665500000000004e-18,-1.1856e-16,0.00671159,0.130722,-1.60424,0.971854,1e-05,0.51444,4.71909,-0.18784
2011-08-05 16:16:00,210378,0,0,0.0237361,3.74251,-2.45816e-15,-5.72799e-18,-1.20069e-16,0.00670028,0.130732,-1.63041,0.948469,1e-05,0.510502,4.93265,-0.0424387
2011-08-05 16:17:00,212485,0,0,0.00358322,3.7481,-2.45958e-15,-5.833970000000001e-18,-1.21708e-16,0.00668933,0.130745,-1.65844,0.927266,1e-05,0.519421,5.1588,0.0979898
2011-08-05 16:18:00,214592,0,0,0.00731931,3.75137,-2.45956e-15,-5.98333e-18,-1.2311e-16,0.0066835,0.130764,-1.68927,0.912629,1e-05,0.549829,5.16744,0.196975
2011-08-05 16:19:00,216699,0,0,0.00461261,3.75019,-2.45666e-15,-6.39088e-18,-1.24287e-16,0.00668073,0.13079,-1.72458,0.8968,1e-05,0.54519,5.36562,0.259926
2011-08-05 16:20:00,218806,0,0,0.00282067,3.74704,-2.45245e-15,-6.7242100000000005e-18,-1.24791e-16,0.00668003,0.130824,-1.76064,0.885303,1e-05,0.54886,5.3085,0.366379
2011-08-05 16:21:00,220913,0,0,0.00288949,3.74331,-2.4478e-15,-6.74006e-18,-1.24505e-16,0.0066756,0.130862,-1.79793,0.880745,1e-05,0.555009,5.45337,0.500047
2011-08-05 16:22:00,223019,0,0,0.0274963,3.7352,-2.44022e-15,-6.720280000000001e-18,-1.24189e-16,0.0066591,0.130905,-1.84359,0.866845,1e-05,0.55967,5.75513,0.568668
2011-08-05 16:23:00,225125,0,0,0.0162421,3.72331,-2.43015e-15,-6.652790000000001e-18,-1.23977e-16,0.0066326,0.13095,-1.89103,0.854319,1e-05,0.569709,5.6355,0.500681
2011-08-05 16:24:00,227231,0,0,0.0019861,3.71094,-2.41981e-15,-6.362200000000001e-18,-1.23584e-16,0.00660411,0.130998,-1.938,0.849521,1e-05,0.577901,5.25477,0.318279
2011-08-05 16:25:00,229336,0,0,0.0175036,3.69904,-2.40992e-15,-6.0159300000000005e-18,-1.23011e-16,0.00657677,0.131049,-1.98435,0.846108,1e-05,0.599963,4.86736,0.0414051
2011-08-05 16:26:00,231441,0,0,0.0123156,3.68806,-2.4008e-15,-5.78257e-18,-1.22359e-16,0.0065528,0.131109,-2.02861,0.839882,1e-05,0.596881,4.45259,-0.295582
2011-08-05 16:27:00,233546,0,0,0.0194448,3.67854,-2.39265e-15,-5.5948600000000004e-18,-1.21765e-16,0.00653554,0.131177,-2.06921,0.829533,1e-05,0.588387,4.12396,-0.557094
2011-08-05 16:28:00,235652,0,0,0.0100111,3.67368,-2.38749e-15,-5.660650000000001e-18,-1.21399e-16,0.00652876,0.131251,-2.09881,0.820247,1e-05,0.574774,3.7038,-0.817851
2011-08-05 16:29:00,237759,0,0,0.00778262,3.67736,-2.38785e-15,-6.436160000000001e-18,-1.21378e-16,0.00653461,0.131335,-2.11025,0.810605,1e-05,0.588217,3.63032,-0.865679
2011-08-05 16:30:00,239866,0,0,0.025587,3.68448,-2.3904e-15,-7.45852e-18,-1.21308e-16,0.006541,0.131418,-2.11615,0.799973,1e-05,0.567914,3.3696,-1.04555
2011-08-05 16:31:00,241974,0,0,0.0163267,3.6897,-2.39172e-15,-8.217150000000001e-18,-1.2084e-16,0.00654004,0.131511,-2.12599,0.791096,1e-05,0.574535,3.22887,-1.11348
2011-08-05 16:32:00,244083,0,0,0.00432312,3.69485,-2.39318e-15,-9.09337e-18,-1.20132e-16,0.00653914,0.131612,-2.13317,0.784538,1e-05,0.579008,3.31407,-0.949067
2011-08-05 16:33:00,246192,0,0,0.0108824,3.70125,-2.39564e-15,-1.01002e-17,-1.19454e-16,0.00654159,0.131721,-2.13634,0.780118,1e-05,0.567487,3.43626,-0.819824
2011-08-05 16:34:00,248301,0,0,0.0152134,3.70914,-2.39907e-15,-1.09222e-17,-1.19106e-16,0.00654674,0.131837,-2.13549,0.772945,1e-05,0.557746,3.71076,-0.665685
2011-08-05 16:35:00,250410,0,0,0.0118079,3.71826,-2.40326e-15,-1.16866e-17,-1.19092e-16,0.00655337,0.131971,-2.1288,0.762739,1e-05,0.560283,4.08883,-0.414146
2011-08-05 16:36:00,252519,0,0,0.00713622,3.72858,-2.40828e-15,-1.25826e-17,-1.1926e-16,0.00656117,0.132125,-2.11869,0.753767,1e-05,0.581911,4.70105,0.0791162
2011-08-05 16:37:00,254627,0,0,0.027492,3.74071,-2.41468e-15,-1.34448e-17,-1.19473e-16,0.00657316,0.132287,-2.10971,0.744898,1e-05,0.558291,5.18635,0.36132
2011-08-05 16:38:00,256736,0,0,0.00255289,3.75566,-2.42317e-15,-1.41442e-17,-1.19491e-16,0.00658924,0.13246,-2.09913,0.736743,1e-05,0.582331,5.44249,0.540246
2011-08-05 16:39:00,258844,0,0,0.0230467,3.77422,-2.43418e-15,-1.46411e-17,-1.19091e-16,0.00660823,0.132641,-2.08556,0.737903,1e-05,0.588169,5.31485,0.573822
2011-08-05 16:40:00,260952,0,0,0.010654,3.79586,-2.44735e-15,-1.48764e-17,-1.18393e-16,0.00663,0.13281,-2.07163,0.746302,1e-05,0.603442,5.32986,0.689392
2011-08-05 16:41:00,263060,0,0,0.00155619,3.81903,-2.46154e-15,-1.47943e-17,-1.17544e-16,0.00665479,0.132978,-2.05303,0.756044,1e-05,0.599785,5.28088,0.684405
2011-08-05 16:42:00,265167,0,0,0.0236989,3.84144,-2.47519e-15,-1.43722e-17,-1.16424e-16,0.0066815,0.133133,-2.03223,0.769621,1e-05,0.60677,5.18461,0.698754
2011-08-05 16:43:00,267274,0,0,0.0272676,3.85891,-2.48581e-15,-1.40585e-17,-1.1557e-16,0.00670846,0.133276,-2.02392,0.781206,1e-05,0.652311,5.26089,0.696793
2011-08-05 16:44:00,269382,0,0,0.00189849,3.86809,-2.49142e-15,-1.42136e-17,-1.15411e-16,0.00673096,0.133401,-2.03078,0.784997,1e-05,0.695262,5.59515,0.828818
2011-08-05 16:45:00,271490,0,0,0.0109153,3.87059,-2.49274e-15,-1.43611e-17,-1.1531e-16,0.00674118,0.133509,-2.04105,0.788175,1e-05,0.730983,5.71676,0.919893
2011-08-05 16:46:00,273598,0,0,0.00788044,3.86969,-2.49172e-15,-1.42469e-17,-1.14845e-16,0.00674033,0.133597,-2.0479,0.795648,1e-05,0.750456,5.86209,1.08533
2011-08-05 16:47:00,275706,0,0,0.00933635,3.86725,-2.48967e-15,-1.40361e-17,-1.14062e-16,0.00673566,0.133669,-2.05376,0.807357,1e-05,0.716548,6.0573,1.30314
2011-08-05 16:48:00,277814,0,0,0.00601786,3.86427,-2.48734e-15,-1.37153e-17,-1.13105e-16,0.00672955,0.133713,-2.06148,0.819766,1e-05,0.626497,6.11672,1.34569
2011-08-05 16:49:00,279921,0,0,0.0284218,3.86126,-2.48509e-15,-1.33141e-17,-1.12158e-16,0.00672322,0.133737,-2.06864,0.83141,1e-05,0.617774,6.18344,1.4016
2011-08-05 16:50:00,282028,0,0,0.0205474,3.85861,-2.48327e-15,-1.30843e-17,-1.11322e-16,0.00671817,0.133743,-2.0753,0.845657,1e-05,0.609114,6.07831,1.37522
2011-08-05 16:51:00,284135,0,0,0.00742673,3.85439,-2.48049e-15,-1.30268e-17,-1.1023e-16,0.00671173,0.133716,-2.08285,0.860681,1e-05,0.609728,5.46829,0.8864
2011-08-05 16:52:00,286241,0,0,0.0152026,3.84636,-2.47513e-15,-1.29495e-17,-1.0848e-16,0.00670113,0.133677,-2.0894,0.875192,1e-05,0.59145,4.65615,0.329254
2011-08-05 16:53:00,288347,0,0,0.011981,3.83721,-2.46918e-15,-1.2819e-17,-1.06652e-16,0.00669108,0.133606,-2.09634,0.890325,1e-05,0.594609,4.04235,-0.0322168
2011-08-05 16:54:00,290454,0,0,0.000711096,3.82905,-2.46422e-15,-1.26418e-17,-1.05206e-16,0.00668364,0.133514,-2.10587,0.90671,1e-05,0.60178,3.67957,-0.17904
2011-08-05 16:55:00,292562,0,0,0.000462255,3.82018,-2.45894e-15,-1.24524e-17,-1.03845e-16,0.00667277,0.133396,-2.1184,0.920601,1e-05,0.600419,3.47751,-0.325601
2011-08-05 16:56:00,294671,0,0,0.00259487,3.80978,-2.45265e-15,-1.22511e-17,-1.02371e-16,0.00665722,0.133269,-2.13169,0.934533,1e-05,0.592612,3.40632,-0.269041
2011-08-05 16:57:00,296780,0,0,0.00637624,3.7983,-2.44563e-15,-1.20007e-17,-1.00817e-16,0.00663924,0.13314,-2.14542,0.953299,1e-05,0.580665,3.42618,-0.141094
2011-08-05 16:58:00,298889,0,0,0.000916575,3.78635,-2.43827e-15,-1.16455e-17,-9.92816e-17,0.00661954,0.133013,-2.16026,0.971038,1e-05,0.573342,3.4119,-0.119767
2011-08-05 16:59:00,300998,0,0,0.0029405,3.77497,-2.43127e-15,-1.12829e-17,-9.78609e-17,0.00660021,0.132896,-2.17434,0.986215,1e-05,0.554301,3.4062,-0.0510058
2011-08-05 17:00:00,303106,0,0,0.027017,3.76539,-2.42549e-15,-1.11419e-17,-9.66165e-17,0.00658398,0.132813,-2.18906,0.998814,1e-05,0.565239,3.64647,0.204038
2011-08-05 17:01:00,305214,0,0,0.0239846,3.75735,-2.42073e-15,-1.10216e-17,-9.55167e-17,0.00656734,0.132741,-2.20357,1.00714,1e-05,0.56748,3.94654,0.411808
2011-08-05 17:02:00,307322,0,0,0.0245855,3.75031,-2.41656e-15,-1.06239e-17,-9.45447e-17,0.00654614,0.132673,-2.21916,1.01203,1e-05,0.555952,4.06598,0.487642
2011-08-05 17:03:00,309430,0,0,0.0208192,3.74577,-2.41394e-15,-1.00408e-17,-9.38786e-17,0.00652366,0.132615,-2.23647,1.01458,1e-05,0.563683,4.15335,0.53622
2011-08-05 17:04:00,311538,0,0,0.015583,3.74326,-2.41262e-15,-9.411200000000001e-18,-9.34392e-17,0.00650235,0.132584,-2.25386,1.01753,1e-05,0.558493,4.12722,0.5721
2011-08-05 17:05:00,313646,0,0,0.0046767,3.74034,-2.41114e-15,-8.796800000000001e-18,-9.29e-17,0.00648094,0.13254,-2.27259,1.02288,1e-05,0.589362,4.19342,0.717559
2011-08-05 17:06:00,315753,0,0,0.0240475,3.73464,-2.40781e-15,-8.19605e-18,-9.23641e-17,0.00645454,0.132492,-2.29147,1.02793,1e-05,0.581509,4.21992,0.787733
2011-08-05 17:07:00,317860,0,0,0.0214577,3.72642,-2.40266e-15,-7.561150000000001e-18,-9.19508e-17,0.00642208,0.132449,-2.3109,1.03191,1e-05,0.580205,4.34308,0.905425
2011-08-05 17:08:00,319967,0,0,0.0209306,3.71984,-2.39843e-15,-6.826880000000001e-18,-9.15397e-17,0.00638954,0.132417,-2.32953,1.03307,1e-05,0.576836,4.41933,0.931536
2011-08-05 17:09:00,322074,0,0,0.014024,3.71501,-2.39522e-15,-6.0044800000000004e-18,-9.10594e-17,0.00635766,0.132377,-2.3445,1.03465,1e-05,0.59786,4.62842,1.17235
2011-08-05 17:10:00,324181,0,0,0.00661728,3.70925,-2.39136e-15,-5.13574e-18,-9.04751e-17,0.00632437,0.132318,-2.35865,1.04068,1e-05,0.577699,4.64501,1.2923
2011-08-05 17:11:00,326288,0,0,0.00230834,3.70305,-2.38718e-15,-4.157400000000001e-18,-8.97091e-17,0.00629267,0.132252,-2.37479,1.04672,1e-05,0.590917,4.84175,1.46517
2011-08-05 17:12:00,328395,0,0,0.000668249,3.69592,-2.38245e-15,-2.93454e-18,-8.88024e-17,0.00626129,0.132183,-2.39265,1.05057,1e-05,0.588964,4.89058,1.46363
2011-08-05 17:13:00,330501,0,0,0.0201026,3.68672,-2.37653e-15,-1.46748e-18,-8.7867e-17,0.00622658,0.132106,-2.41,1.0568,1e-05,0.576117,4.61048,1.30438
2011-08-05 17:14:00,332607,0,0,0.00971136,3.67606,-2.36991e-15,2.8025499999999997e-22,-8.69309e-17,0.00618928,0.131985,-2.42598,1.0678,1e-05,0.59623,4.35529,1.23194
2011-08-05 17:15:00,334713,0,0,0.00602902,3.66523,-2.36349e-15,1.3064700000000001e-18,-8.61945e-17,0.00615355,0.131837,-2.44147,1.07971,1e-05,0.58425,4.29911,1.25709
2011-08-05 17:16:00,336819,0,0,0.0141091,3.65424,-2.35714e-15,2.4664600000000002e-18,-8.56931e-17,0.00611968,0.131653,-2.45468,1.09119,1e-05,0.603393,4.35838,1.33432
2011-08-05 17:17:00,338925,0,0,0.0219054,3.641,-2.34926e-15,3.53968e-18,-8.5005e-17,0.00607994,0.131444,-2.46552,1.10371,1e-05,0.591473,4.47102,1.45143
2011-08-05 17:18:00,341031,0,0,0.0238415,3.62564,-2.33992e-15,4.5697600000000004e-18,-8.41004e-17,0.00603499,0.131219,-2.47485,1.11807,1e-05,0.594418,4.49712,1.5202
2011-08-05 17:19:00,343137,0,0,0.0203177,3.60978,-2.33026e-15,5.53168e-18,-8.32413e-17,0.00599081,0.130984,-2.48454,1.13258,1e-05,0.605195,4.62712,1.64803
2011-08-05 17:20:00,345243,0,0,0.0143438,3.59356,-2.32035e-15,6.3498400000000004e-18,-8.2501e-17,0.00594746,0.130755,-2.49724,1.1431,1e-05,0.599214,4.8274,1.76397
2011-08-05 17:21:00,347349,0,0,0.0113528,3.57858,-2.31118e-15,7.143770000000001e-18,-8.18043e-17,0.00590684,0.130544,-2.51267,1.14981,1e-05,0.584555,5.04376,1.89312
2011-08-05 17:22:00,349455,0,0,0.00709525,3.5667,-2.30397e-15,8.110350000000001e-18,-8.10274e-17,0.00587164,0.130373,-2.52877,1.15691,1e-05,0.608311,5.13811,1.99083
2011-08-05 17:23:00,351561,0,0,0.00447677,3.55636,-2.29779e-15,9.183780000000001e-18,-8.0154e-17,0.00584065,0.130251,-2.54537,1.1664,1e-05,0.612453,4.99429,1.92799
2011-08-05 17:24:00,353666,0,0,0.0278257,3.54634,-2.29192e-15,1.02429e-17,-7.92169e-17,0.00581229,0.130148,-2.56247,1.17811,1e-05,0.599598,4.7853,1.85701
2011-08-05 17:25:00,355771,0,0,0.0224938,3.53781,-2.28708e-15,1.12251e-17,-7.82635e-17,0.00578517,0.130055,-2.58073,1.18475,1e-05,0.617437,4.74635,1.77632
2011-08-05 17:26:00,357876,0,0,0.02319,3.53128,-2.28356e-15,1.20094e-17,-7.72812e-17,0.00575828,0.129967,-2.59718,1.1881,1e-05,0.610448,4.5665,1.67952
2011-08-05 17:27:00,359982,0,0,0.00335498,3.52651,-2.28115e-15,1.24533e-17,-7.6198e-17,0.00573261,0.129893,-2.60812,1.19472,1e-05,0.609851,4.31562,1.5831
2011-08-05 17:28:00,362088,0,0,0.0132203,3.52508,-2.28079e-15,1.26428e-17,-7.51339e-17,0.00570967,0.129849,-2.61546,1.20352,1e-05,0.617953,4.1857,1.5933
2011-08-05 17:29:00,364194,0,0,0.0239716,3.52892,-2.28361e-15,1.27763e-17,-7.4301e-17,0.00569018,0.129818,-2.62512,1.20758,1e-05,0.608967,4.45251,1.75349